Time,TemperatureF,DewpointF,PressureIn,WindDirection,WindDirectionDegrees,WindSpeedMPH,WindSpeedGustMPH,Humidity,HourlyPrecipIn,Conditions,Clouds,dailyrainin,SoftwareType,DateUTC
2013-07-27 00:01:00,81.6,77.7,29.99,West,267,0.0,1.0,88,-0.64,,,0.00,Weather View 32 v70,2013-07-27 04:01:00,
2013-07-27 00:02:00,81.5,77.6,29.99,West,267,0.0,1.0,88,-0.64,,,0.00,Weather View 32 v70,2013-07-27 04:02:00,
2013-07-27 00:07:00,81.4,77.5,29.99,West,267,0.0,1.0,88,-0.64,,,0.00,Weather View 32 v70,2013-07-27 04:07:00,
2013-07-27 00:12:00,81.3,77.4,29.99,West,267,0.0,1.0,88,-0.64,,,0.00,Weather View 32 v70,2013-07-27 04:12:00,
2013-07-27 00:17:00,81.3,77.4,29.99,West,267,0.0,1.0,88,-0.64,,,0.00,Weather View 32 v70,2013-07-27 04:17:00,
2013-07-27 00:22:00,81.2,77.3,29.99,West,267,0.0,1.0,88,-0.64,,,0.00,Weather View 32 v70,2013-07-27 04:22:00,
2013-07-27 00:27:00,81.2,77.3,29.99,West,267,0.0,1.0,88,-0.64,,,0.00,Weather View 32 v70,2013-07-27 04:27:00,
2013-07-27 00:32:00,81.2,77.3,29.99,West,267,0.0,1.0,88,-0.64,,,0.00,Weather View 32 v70,2013-07-27 04:32:00,
2013-07-27 00:37:00,81.2,77.3,29.99,West,267,0.0,1.0,88,-0.64,,,0.00,Weather View 32 v70,2013-07-27 04:37:00,
2013-07-27 00:42:00,81.2,77.3,29.99,West,267,0.0,1.0,88,-0.64,,,0.00,Weather View 32 v70,2013-07-27 04:42:00,
2013-07-27 00:47:00,81.2,77.3,29.99,West,267,0.0,1.0,88,-0.64,,,0.00,Weather View 32 v70,2013-07-27 04:47:00,
2013-07-27 00:52:00,81.2,77.3,29.99,West,267,0.0,1.0,88,-0.64,,,0.00,Weather View 32 v70,2013-07-27 04:52:00,
2013-07-27 00:57:00,81.2,77.3,29.98,West,267,0.0,1.0,88,0.00,,,0.00,Weather View 32 v70,2013-07-27 04:57:00,
2013-07-27 01:02:00,81.2,77.3,29.98,West,267,0.0,1.0,88,0.00,,,0.00,Weather View 32 v70,2013-07-27 05:02:00,
2013-07-27 01:07:00,81.2,77.3,29.98,West,267,0.0,1.0,88,0.00,,,0.00,Weather View 32 v70,2013-07-27 05:07:00,
2013-07-27 01:12:00,81.2,77.3,29.98,West,267,0.0,1.0,88,0.00,,,0.00,Weather View 32 v70,2013-07-27 05:12:00,
2013-07-27 01:17:00,81.1,77.2,29.98,West,267,0.0,1.0,88,0.00,,,0.00,Weather View 32 v70,2013-07-27 05:17:00,
2013-07-27 01:22:00,81.1,77.2,29.98,West,267,0.0,1.0,88,0.00,,,0.00,Weather View 32 v70,2013-07-27 05:22:00,
2013-07-27 01:27:00,81.1,77.2,29.98,West,267,0.0,1.0,88,0.00,,,0.00,Weather View 32 v70,2013-07-27 05:27:00,
2013-07-27 01:32:00,81.1,77.5,29.98,West,267,0.0,1.0,89,0.00,,,0.00,Weather View 32 v70,2013-07-27 05:32:00,
2013-07-27 01:37:00,81.0,77.4,29.98,West,267,0.0,1.0,89,0.00,,,0.00,Weather View 32 v70,2013-07-27 05:37:00,
2013-07-27 01:42:00,80.9,77.0,29.97,West,267,0.0,1.0,88,0.00,,,0.00,Weather View 32 v70,2013-07-27 05:42:00,
2013-07-27 01:47:00,80.7,76.4,29.97,West,267,0.0,1.0,87,0.00,,,0.00,Weather View 32 v70,2013-07-27 05:47:00,
2013-07-27 01:52:00,80.6,76.4,29.97,West,267,0.0,1.0,87,0.00,,,0.00,Weather View 32 v70,2013-07-27 05:52:00,
2013-07-27 01:59:00,80.5,76.3,29.97,West,267,0.0,1.0,87,0.00,,,0.00,Weather View 32 v70,2013-07-27 05:59:00,
2013-07-27 02:21:00,80.3,74.6,29.96,West,271,0.0,2.0,83,0.00,,,0.00,Weather View 32 v70,2013-07-27 06:21:00,
2013-07-27 02:27:00,80.2,74.5,29.96,West,271,0.0,2.0,83,0.00,,,0.00,Weather View 32 v70,2013-07-27 06:27:00,
2013-07-27 02:32:00,80.2,74.5,29.96,West,271,0.0,2.0,83,0.00,,,0.00,Weather View 32 v70,2013-07-27 06:32:00,
2013-07-27 02:37:00,80.1,74.4,29.96,West,271,0.0,2.0,83,0.00,,,0.00,Weather View 32 v70,2013-07-27 06:37:00,
2013-07-27 02:42:00,80.0,74.3,29.95,West,271,0.0,2.0,83,0.00,,,0.00,Weather View 32 v70,2013-07-27 06:42:00,
2013-07-27 02:47:00,79.7,74.1,29.95,West,271,0.0,2.0,83,0.00,,,0.00,Weather View 32 v70,2013-07-27 06:47:00,
2013-07-27 02:52:00,79.6,74.0,29.95,West,271,0.0,2.0,83,0.00,,,0.00,Weather View 32 v70,2013-07-27 06:52:00,
2013-07-27 02:57:00,79.4,73.8,29.95,West,271,0.0,2.0,83,0.00,,,0.00,Weather View 32 v70,2013-07-27 06:57:00,
2013-07-27 03:02:00,79.3,74.0,29.94,West,271,0.0,2.0,84,0.00,,,0.00,Weather View 32 v70,2013-07-27 07:02:00,
2013-07-27 03:07:00,79.3,74.0,29.94,West,271,0.0,2.0,84,0.00,,,0.00,Weather View 32 v70,2013-07-27 07:07:00,
2013-07-27 03:12:00,79.2,73.9,29.95,West,277,0.0,4.0,84,0.00,,,0.00,Weather View 32 v70,2013-07-27 07:12:00,
2013-07-27 03:17:00,79.1,74.2,29.95,West,276,0.0,4.0,85,0.00,,,0.00,Weather View 32 v70,2013-07-27 07:17:00,
2013-07-27 03:22:00,79.1,74.5,29.95,West,277,0.0,4.0,86,0.00,,,0.00,Weather View 32 v70,2013-07-27 07:22:00,
2013-07-27 03:27:00,79.2,74.6,29.95,West,277,0.0,4.0,86,0.00,,,0.00,Weather View 32 v70,2013-07-27 07:27:00,
2013-07-27 03:32:00,79.3,74.4,29.95,West,276,0.0,4.0,85,0.00,,,0.00,Weather View 32 v70,2013-07-27 07:32:00,
2013-07-27 03:37:00,79.5,74.6,29.94,West,277,0.0,4.0,85,0.00,,,0.00,Weather View 32 v70,2013-07-27 07:37:00,
2013-07-27 03:42:00,79.6,74.0,29.94,West,277,0.0,4.0,83,0.00,,,0.00,Weather View 32 v70,2013-07-27 07:42:00,
2013-07-27 03:47:00,79.6,74.0,29.94,West,277,0.0,4.0,83,0.00,,,0.00,Weather View 32 v70,2013-07-27 07:47:00,
2013-07-27 03:52:00,79.8,74.9,29.94,West,277,0.0,4.0,85,0.00,,,0.00,Weather View 32 v70,2013-07-27 07:52:00,
2013-07-27 03:57:00,79.9,75.3,29.94,West,277,0.0,4.0,86,0.00,,,0.00,Weather View 32 v70,2013-07-27 07:57:00,
2013-07-27 04:02:00,79.9,75.3,29.94,West,276,0.0,4.0,86,0.00,,,0.00,Weather View 32 v70,2013-07-27 08:02:00,
2013-07-27 04:07:00,79.6,75.0,29.94,North,9,0.0,5.0,86,0.00,,,0.00,Weather View 32 v70,2013-07-27 08:07:00,
2013-07-27 04:12:00,79.3,74.4,29.94,NNE,15,0.0,5.0,85,0.00,,,0.00,Weather View 32 v70,2013-07-27 08:12:00,
2013-07-27 04:17:00,79.2,74.6,29.94,NNE,16,0.0,5.0,86,0.00,,,0.00,Weather View 32 v70,2013-07-27 08:17:00,
2013-07-27 04:22:00,79.2,75.0,29.94,NNE,21,0.0,5.0,87,0.00,,,0.00,Weather View 32 v70,2013-07-27 08:22:00,
2013-07-27 04:27:00,79.2,75.7,29.94,NNE,21,0.0,5.0,89,0.01,,,0.01,Weather View 32 v70,2013-07-27 08:27:00,
2013-07-27 04:32:00,79.0,75.5,29.94,NNE,21,0.0,5.0,89,0.01,,,0.01,Weather View 32 v70,2013-07-27 08:32:00,
2013-07-27 04:37:00,78.7,75.5,29.94,NNE,21,0.0,5.0,90,0.02,,,0.02,Weather View 32 v70,2013-07-27 08:37:00,
2013-07-27 04:42:00,78.6,75.7,29.94,NNE,21,0.0,5.0,91,0.02,,,0.02,Weather View 32 v70,2013-07-27 08:42:00,
2013-07-27 04:47:00,78.4,75.5,29.94,NNE,21,0.0,5.0,91,0.02,,,0.02,Weather View 32 v70,2013-07-27 08:47:00,
2013-07-27 04:52:00,78.4,75.9,29.93,NNE,21,0.0,5.0,92,0.02,,,0.02,Weather View 32 v70,2013-07-27 08:52:00,
2013-07-27 04:58:00,78.4,75.9,29.94,NNE,21,0.0,5.0,92,0.02,,,0.02,Weather View 32 v70,2013-07-27 08:58:00,
2013-07-27 05:03:00,78.4,76.2,29.94,NNE,21,0.0,5.0,93,0.02,,,0.02,Weather View 32 v70,2013-07-27 09:03:00,
2013-07-27 05:08:00,78.4,76.2,29.94,NNE,21,0.0,4.0,93,0.02,,,0.02,Weather View 32 v70,2013-07-27 09:08:00,
2013-07-27 05:13:00,78.3,76.1,29.93,NNE,21,0.0,4.0,93,0.02,,,0.02,Weather View 32 v70,2013-07-27 09:13:00,
2013-07-27 05:18:00,78.2,76.0,29.93,NNE,21,0.0,4.0,93,0.02,,,0.02,Weather View 32 v70,2013-07-27 09:18:00,
2013-07-27 05:23:00,78.1,75.9,29.93,NNE,21,0.0,0.0,93,0.02,,,0.02,Weather View 32 v70,2013-07-27 09:23:00,
2013-07-27 05:28:00,78.1,75.9,29.93,NNE,21,0.0,0.0,93,0.01,,,0.02,Weather View 32 v70,2013-07-27 09:28:00,
2013-07-27 05:33:00,78.0,75.8,29.93,NNE,21,0.0,0.0,93,0.01,,,0.02,Weather View 32 v70,2013-07-27 09:33:00,
2013-07-27 05:38:00,78.0,75.8,29.94,NNE,21,0.0,0.0,93,0.00,,,0.02,Weather View 32 v70,2013-07-27 09:38:00,
2013-07-27 05:43:00,78.1,75.9,29.94,NNE,21,0.0,0.0,93,0.00,,,0.02,Weather View 32 v70,2013-07-27 09:43:00,
2013-07-27 05:48:00,78.0,75.8,29.94,NNE,21,0.0,0.0,93,0.00,,,0.02,Weather View 32 v70,2013-07-27 09:48:00,
2013-07-27 05:53:00,78.0,75.8,29.94,NNE,21,0.0,0.0,93,0.00,,,0.02,Weather View 32 v70,2013-07-27 09:53:00,
2013-07-27 05:58:00,77.9,75.7,29.94,NNE,21,0.0,0.0,93,0.00,,,0.02,Weather View 32 v70,2013-07-27 09:58:00,
2013-07-27 06:03:00,77.8,75.9,29.94,NNE,21,0.0,0.0,94,0.00,,,0.02,Weather View 32 v70,2013-07-27 10:03:00,
2013-07-27 06:08:00,77.8,75.9,29.94,NNE,21,0.0,0.0,94,0.00,,,0.02,Weather View 32 v70,2013-07-27 10:08:00,
2013-07-27 06:13:00,77.7,75.8,29.94,NNE,21,0.0,0.0,94,0.00,,,0.02,Weather View 32 v70,2013-07-27 10:13:00,
2013-07-27 06:18:00,77.7,75.8,29.94,NNE,21,0.0,0.0,94,0.00,,,0.02,Weather View 32 v70,2013-07-27 10:18:00,
2013-07-27 06:23:00,77.7,75.8,29.94,NNE,21,0.0,0.0,94,0.00,,,0.02,Weather View 32 v70,2013-07-27 10:23:00,
2013-07-27 06:28:00,77.6,75.7,29.94,NNE,21,0.0,0.0,94,0.00,,,0.02,Weather View 32 v70,2013-07-27 10:28:00,
2013-07-27 06:33:00,77.6,75.7,29.95,NNE,21,0.0,0.0,94,0.00,,,0.02,Weather View 32 v70,2013-07-27 10:33:00,
2013-07-27 06:38:00,77.5,75.6,29.95,NNE,21,0.0,0.0,94,0.00,,,0.02,Weather View 32 v70,2013-07-27 10:38:00,
2013-07-27 06:43:00,77.5,75.6,29.95,NNE,21,0.0,0.0,94,0.00,,,0.02,Weather View 32 v70,2013-07-27 10:43:00,
2013-07-27 06:48:00,77.4,75.5,29.95,NNE,21,0.0,0.0,94,0.00,,,0.02,Weather View 32 v70,2013-07-27 10:48:00,
2013-07-27 06:53:00,77.4,75.5,29.95,NNE,21,0.0,0.0,94,0.00,,,0.02,Weather View 32 v70,2013-07-27 10:53:00,
2013-07-27 06:58:00,77.4,75.5,29.95,NNE,21,0.0,0.0,94,0.00,,,0.02,Weather View 32 v70,2013-07-27 10:58:00,
2013-07-27 07:03:00,77.4,75.5,29.95,NNE,21,0.0,0.0,94,0.00,,,0.02,Weather View 32 v70,2013-07-27 11:03:00,
2013-07-27 07:08:00,77.5,75.9,29.96,NNE,21,0.0,0.0,95,0.00,,,0.02,Weather View 32 v70,2013-07-27 11:08:00,
2013-07-27 07:13:00,77.5,75.9,29.96,NNE,21,0.0,0.0,95,0.00,,,0.02,Weather View 32 v70,2013-07-27 11:13:00,
2013-07-27 07:18:00,77.6,76.0,29.96,NNE,21,0.0,0.0,95,0.00,,,0.02,Weather View 32 v70,2013-07-27 11:18:00,
2013-07-27 07:23:00,77.7,76.1,29.96,NNE,21,0.0,0.0,95,0.00,,,0.02,Weather View 32 v70,2013-07-27 11:23:00,
2013-07-27 07:28:00,78.0,76.4,29.96,NNE,21,0.0,0.0,95,0.00,,,0.02,Weather View 32 v70,2013-07-27 11:28:00,
2013-07-27 07:33:00,78.1,76.5,29.97,NNE,21,0.0,0.0,95,0.00,,,0.02,Weather View 32 v70,2013-07-27 11:33:00,
2013-07-27 07:38:00,78.2,76.6,29.97,NNE,21,0.0,0.0,95,0.00,,,0.02,Weather View 32 v70,2013-07-27 11:38:00,
2013-07-27 07:43:00,78.3,76.7,29.97,NNE,21,0.0,0.0,95,0.00,,,0.02,Weather View 32 v70,2013-07-27 11:43:00,
2013-07-27 07:48:00,78.5,76.9,29.97,NNE,21,0.0,0.0,95,0.00,,,0.02,Weather View 32 v70,2013-07-27 11:48:00,
2013-07-27 07:53:00,78.5,76.9,29.97,NNE,21,0.0,0.0,95,0.00,,,0.02,Weather View 32 v70,2013-07-27 11:53:00,
2013-07-27 07:59:00,78.8,77.2,29.97,NNE,21,0.0,0.0,95,0.00,,,0.02,Weather View 32 v70,2013-07-27 11:59:00,
2013-07-27 08:04:00,79.1,77.5,29.98,NNE,21,0.0,0.0,95,0.00,,,0.02,Weather View 32 v70,2013-07-27 12:04:00,
2013-07-27 08:09:00,79.6,78.0,29.98,NNE,21,0.0,0.0,95,0.00,,,0.02,Weather View 32 v70,2013-07-27 12:09:00,
2013-07-27 08:14:00,80.3,78.7,29.98,NNE,21,0.0,0.0,95,0.00,,,0.02,Weather View 32 v70,2013-07-27 12:14:00,
2013-07-27 08:19:00,80.7,79.1,29.97,NNE,21,0.0,0.0,95,0.00,,,0.02,Weather View 32 v70,2013-07-27 12:19:00,
2013-07-27 08:24:00,81.0,79.4,29.98,NNE,21,0.0,0.0,95,0.00,,,0.02,Weather View 32 v70,2013-07-27 12:24:00,
2013-07-27 08:29:00,81.1,79.2,29.98,NNE,21,0.0,0.0,94,0.00,,,0.02,Weather View 32 v70,2013-07-27 12:29:00,
2013-07-27 08:34:00,81.7,79.8,29.98,NNE,21,0.0,0.0,94,0.00,,,0.02,Weather View 32 v70,2013-07-27 12:34:00,
2013-07-27 08:39:00,82.2,80.0,29.98,NNE,21,0.0,0.0,93,0.00,,,0.02,Weather View 32 v70,2013-07-27 12:39:00,
2013-07-27 08:44:00,82.6,80.0,29.98,NNE,21,0.0,0.0,92,0.00,,,0.02,Weather View 32 v70,2013-07-27 12:44:00,
2013-07-27 08:49:00,83.2,80.6,29.98,NNE,21,0.0,0.0,92,0.00,,,0.02,Weather View 32 v70,2013-07-27 12:49:00,
2013-07-27 08:54:00,83.5,79.5,29.98,NNE,21,0.0,0.0,88,0.00,,,0.02,Weather View 32 v70,2013-07-27 12:54:00,
2013-07-27 08:59:00,83.8,79.1,29.98,NNE,21,0.0,0.0,86,0.00,,,0.02,Weather View 32 v70,2013-07-27 12:59:00,
2013-07-27 09:04:00,84.5,79.8,29.98,NNE,21,0.0,0.0,86,0.00,,,0.02,Weather View 32 v70,2013-07-27 13:04:00,
2013-07-27 09:09:00,85.5,79.7,29.98,NNE,21,0.0,0.0,83,0.00,,,0.02,Weather View 32 v70,2013-07-27 13:09:00,
2013-07-27 09:14:00,86.3,79.4,29.98,NNE,21,0.0,0.0,80,0.00,,,0.02,Weather View 32 v70,2013-07-27 13:14:00,
2013-07-27 09:19:00,86.4,78.7,29.98,NNE,21,0.0,0.0,78,0.00,,,0.02,Weather View 32 v70,2013-07-27 13:19:00,
2013-07-27 09:24:00,87.2,79.9,29.98,NNW,333,4.0,0.0,79,0.00,,,0.02,Weather View 32 v70,2013-07-27 13:24:00,
2013-07-27 09:29:00,87.3,79.2,29.98,NNW,333,3.0,4.0,77,0.00,,,0.02,Weather View 32 v70,2013-07-27 13:29:00,
2013-07-27 09:34:00,87.9,79.3,29.98,NNW,345,0.0,4.0,76,0.00,,,0.02,Weather View 32 v70,2013-07-27 13:34:00,
2013-07-27 09:39:00,88.5,78.7,29.98,NNE,29,1.0,8.0,73,0.00,,,0.02,Weather View 32 v70,2013-07-27 13:39:00,
2013-07-27 09:44:00,89.0,78.3,29.98,NE,42,0.0,8.0,71,0.00,,,0.02,Weather View 32 v70,2013-07-27 13:44:00,
2013-07-27 09:49:00,88.9,78.7,29.98,NW,315,0.0,8.0,72,0.00,,,0.02,Weather View 32 v70,2013-07-27 13:49:00,
2013-07-27 09:54:00,89.6,79.3,29.98,North,349,1.0,8.0,72,0.00,,,0.02,Weather View 32 v70,2013-07-27 13:54:00,
2013-07-27 09:59:00,89.6,78.9,29.98,North,355,0.0,8.0,71,0.00,,,0.02,Weather View 32 v70,2013-07-27 13:59:00,
2013-07-27 10:04:00,89.6,78.0,29.98,NW,315,0.0,8.0,69,0.00,,,0.02,Weather View 32 v70,2013-07-27 14:04:00,
2013-07-27 10:09:00,89.5,77.9,29.98,NNE,19,0.0,8.0,69,0.00,,,0.02,Weather View 32 v70,2013-07-27 14:09:00,
2013-07-27 10:14:00,90.1,78.5,29.98,NNW,342,0.0,8.0,69,0.00,,,0.02,Weather View 32 v70,2013-07-27 14:14:00,
2013-07-27 10:19:00,90.2,78.6,29.98,NNW,328,3.0,8.0,69,0.00,,,0.02,Weather View 32 v70,2013-07-27 14:19:00,
2013-07-27 10:24:00,89.1,77.5,29.98,West,275,2.0,8.0,69,0.00,,,0.02,Weather View 32 v70,2013-07-27 14:24:00,
2013-07-27 10:29:00,87.8,77.2,29.98,WNW,296,2.0,8.0,71,0.00,,,0.02,Weather View 32 v70,2013-07-27 14:29:00,
2013-07-27 10:34:00,87.8,78.0,29.98,WNW,290,2.0,8.0,73,0.00,,,0.02,Weather View 32 v70,2013-07-27 14:34:00,
2013-07-27 10:39:00,88.4,78.2,29.98,WNW,303,5.0,8.0,72,0.00,,,0.02,Weather View 32 v70,2013-07-27 14:39:00,
2013-07-27 10:45:00,87.4,77.2,29.97,West,277,3.0,8.0,72,0.00,,,0.02,Weather View 32 v70,2013-07-27 14:45:00,
2013-07-27 10:50:00,86.8,77.5,29.98,West,263,3.0,8.0,74,0.00,,,0.02,Weather View 32 v70,2013-07-27 14:50:00,
2013-07-27 10:55:00,86.5,76.4,29.98,WSW,257,3.0,8.0,72,0.00,,,0.02,Weather View 32 v70,2013-07-27 14:55:00,
2013-07-27 11:00:00,86.4,77.5,29.98,North,355,4.0,8.0,75,0.00,,,0.02,Weather View 32 v70,2013-07-27 15:00:00,
2013-07-27 11:05:00,86.7,77.4,29.98,West,277,0.0,8.0,74,0.00,,,0.02,Weather View 32 v70,2013-07-27 15:05:00,
2013-07-27 11:10:00,86.9,77.6,29.98,NW,309,0.0,8.0,74,0.00,,,0.02,Weather View 32 v70,2013-07-27 15:10:00,
2013-07-27 11:15:00,87.5,78.1,29.98,NW,322,1.0,8.0,74,0.00,,,0.02,Weather View 32 v70,2013-07-27 15:15:00,
2013-07-27 11:20:00,88.0,77.8,29.98,WNW,294,2.0,8.0,72,0.00,,,0.02,Weather View 32 v70,2013-07-27 15:20:00,
2013-07-27 11:25:00,88.2,77.6,29.98,WNW,290,4.0,8.0,71,0.00,,,0.02,Weather View 32 v70,2013-07-27 15:25:00,
2013-07-27 11:30:00,88.6,77.1,29.98,NNW,336,0.0,7.0,69,0.00,,,0.02,Weather View 32 v70,2013-07-27 15:30:00,
2013-07-27 11:35:00,88.7,77.2,29.98,WSW,238,4.0,7.0,69,0.00,,,0.02,Weather View 32 v70,2013-07-27 15:35:00,
2013-07-27 11:40:00,88.4,76.9,29.98,West,278,3.0,7.0,69,0.00,,,0.02,Weather View 32 v70,2013-07-27 15:40:00,
2013-07-27 11:45:00,88.5,77.0,29.98,WNW,294,0.0,7.0,69,0.00,,,0.02,Weather View 32 v70,2013-07-27 15:45:00,
2013-07-27 11:50:00,89.7,77.7,29.98,NW,309,2.0,7.0,68,0.00,,,0.02,Weather View 32 v70,2013-07-27 15:50:00,
2013-07-27 11:55:00,90.0,77.1,29.97,ENE,62,0.0,7.0,66,0.00,,,0.02,Weather View 32 v70,2013-07-27 15:55:00,
2013-07-27 12:00:00,90.0,77.5,29.97,West,264,3.0,7.0,67,0.00,,,0.02,Weather View 32 v70,2013-07-27 16:00:00,
2013-07-27 12:05:00,89.9,77.4,29.97,West,269,0.0,7.0,67,0.00,,,0.02,Weather View 32 v70,2013-07-27 16:05:00,
2013-07-27 12:10:00,90.1,77.6,29.97,West,280,2.0,7.0,67,0.00,,,0.02,Weather View 32 v70,2013-07-27 16:10:00,
2013-07-27 12:15:00,90.3,76.9,29.96,West,281,0.0,7.0,65,0.00,,,0.02,Weather View 32 v70,2013-07-27 16:15:00,
2013-07-27 12:20:00,90.7,76.8,29.97,North,355,0.0,7.0,64,0.00,,,0.02,Weather View 32 v70,2013-07-27 16:20:00,
2013-07-27 12:25:00,91.6,76.7,29.97,West,269,1.0,7.0,62,0.00,,,0.02,Weather View 32 v70,2013-07-27 16:25:00,
2013-07-27 12:30:00,91.3,77.3,29.97,West,277,0.0,7.0,64,0.62,,,0.02,Weather View 32 v70,2013-07-27 16:30:00,
2013-07-27 12:31:00,91.3,77.3,29.97,West,277,3.0,7.0,64,0.00,,,0.02,Weather View 32 v70,2013-07-27 16:31:00,
2013-07-27 12:36:00,91.5,77.1,29.97,West,279,0.0,7.0,63,0.00,,,0.02,Weather View 32 v70,2013-07-27 16:36:00,
2013-07-27 12:41:00,91.7,76.8,29.96,NW,305,0.0,6.0,62,0.00,,,0.02,Weather View 32 v70,2013-07-27 16:41:00,
2013-07-27 12:46:00,92.5,77.0,29.96,NW,311,0.0,6.0,61,0.00,,,0.02,Weather View 32 v70,2013-07-27 16:46:00,
2013-07-27 12:51:00,93.1,76.6,29.96,NW,315,0.0,6.0,59,0.00,,,0.02,Weather View 32 v70,2013-07-27 16:51:00,
2013-07-27 12:56:00,93.7,76.1,29.96,NNW,340,2.0,6.0,57,0.00,,,0.02,Weather View 32 v70,2013-07-27 16:56:00,
2013-07-27 13:01:00,94.2,76.6,29.95,NNE,19,4.0,6.0,57,0.00,,,0.02,Weather View 32 v70,2013-07-27 17:01:00,
2013-07-27 13:06:00,94.5,76.3,29.95,NNE,19,0.0,6.0,56,0.00,,,0.02,Weather View 32 v70,2013-07-27 17:06:00,
2013-07-27 13:11:00,95.0,76.2,29.95,NNE,15,3.0,6.0,55,0.00,,,0.02,Weather View 32 v70,2013-07-27 17:11:00,
2013-07-27 13:16:00,94.4,75.1,29.95,WSW,246,2.0,6.0,54,0.00,,,0.02,Weather View 32 v70,2013-07-27 17:16:00,
2013-07-27 13:21:00,93.7,76.1,29.95,NE,54,0.0,6.0,57,0.00,,,0.02,Weather View 32 v70,2013-07-27 17:21:00,
2013-07-27 13:26:00,93.8,75.1,29.95,NNE,32,0.0,6.0,55,0.00,,,0.02,Weather View 32 v70,2013-07-27 17:26:00,
2013-07-27 13:30:00,93.9,75.7,29.95,NW,313,3.0,6.0,56,0.00,,,0.02,Weather View 32 v70,2013-07-27 17:30:00,
2013-07-27 13:31:00,94.1,75.4,29.95,NW,315,0.0,6.0,55,0.00,,,0.02,Weather View 32 v70,2013-07-27 17:31:00,
2013-07-27 13:36:00,94.3,75.0,29.95,West,263,2.0,7.0,54,0.00,,,0.02,Weather View 32 v70,2013-07-27 17:36:00,
2013-07-27 13:41:00,93.7,74.5,29.95,West,262,0.0,7.0,54,0.00,,,0.02,Weather View 32 v70,2013-07-27 17:41:00,
2013-07-27 13:46:00,94.3,75.6,29.95,West,263,0.0,7.0,55,0.00,,,0.02,Weather View 32 v70,2013-07-27 17:46:00,
2013-07-27 13:51:00,93.9,74.1,29.95,West,273,2.0,7.0,53,0.00,,,0.02,Weather View 32 v70,2013-07-27 17:51:00,
2013-07-27 13:56:00,93.5,74.3,29.95,WNW,287,4.0,9.0,54,0.00,,,0.02,Weather View 32 v70,2013-07-27 17:56:00,
2013-07-27 14:01:00,93.0,73.8,29.95,West,266,4.0,10.0,54,0.00,,,0.02,Weather View 32 v70,2013-07-27 18:01:00,
2013-07-27 14:07:00,91.7,73.7,29.94,WNW,291,5.0,11.0,56,0.00,,,0.02,Weather View 32 v70,2013-07-27 18:07:00,
2013-07-27 14:12:00,91.7,74.2,29.95,West,280,2.0,11.0,57,0.00,,,0.02,Weather View 32 v70,2013-07-27 18:12:00,
2013-07-27 14:17:00,91.7,74.2,29.95,West,276,3.0,11.0,57,0.00,,,0.02,Weather View 32 v70,2013-07-27 18:17:00,
2013-07-27 14:22:00,91.8,73.8,29.94,West,276,0.0,11.0,56,0.00,,,0.02,Weather View 32 v70,2013-07-27 18:22:00,
2013-07-27 14:27:00,91.8,74.3,29.94,West,263,3.0,11.0,57,0.00,,,0.02,Weather View 32 v70,2013-07-27 18:27:00,
2013-07-27 14:30:00,92.0,74.0,29.94,West,271,0.0,11.0,56,0.00,,,0.02,Weather View 32 v70,2013-07-27 18:30:00,
2013-07-27 14:32:00,92.2,73.1,29.94,WSW,254,4.0,11.0,54,0.00,,,0.02,Weather View 32 v70,2013-07-27 18:32:00,
2013-07-27 14:37:00,92.1,75.6,29.94,WSW,253,3.0,11.0,59,0.00,,,0.02,Weather View 32 v70,2013-07-27 18:37:00,
2013-07-27 14:42:00,91.9,72.8,29.94,WSW,256,5.0,11.0,54,0.00,,,0.02,Weather View 32 v70,2013-07-27 18:42:00,
2013-07-27 14:47:00,91.8,74.3,29.94,WSW,254,3.0,11.0,57,0.00,,,0.02,Weather View 32 v70,2013-07-27 18:47:00,
2013-07-27 14:52:00,92.1,73.5,29.94,SW,236,0.0,11.0,55,0.00,,,0.02,Weather View 32 v70,2013-07-27 18:52:00,
2013-07-27 14:57:00,92.2,72.0,29.94,West,272,2.0,11.0,52,0.00,,,0.02,Weather View 32 v70,2013-07-27 18:57:00,
2013-07-27 15:02:00,92.4,72.7,29.94,West,274,3.0,11.0,53,0.00,,,0.02,Weather View 32 v70,2013-07-27 19:02:00,
2013-07-27 15:07:00,92.2,72.5,29.94,WSW,254,0.0,10.0,53,0.00,,,0.02,Weather View 32 v70,2013-07-27 19:07:00,
2013-07-27 15:12:00,92.8,72.5,29.94,WSW,257,1.0,10.0,52,0.00,,,0.02,Weather View 32 v70,2013-07-27 19:12:00,
2013-07-27 15:17:00,93.6,75.5,29.94,West,268,2.0,10.0,56,0.00,,,0.02,Weather View 32 v70,2013-07-27 19:17:00,
2013-07-27 15:22:00,93.6,75.5,29.93,West,264,4.0,10.0,56,0.00,,,0.02,Weather View 32 v70,2013-07-27 19:22:00,
2013-07-27 15:27:00,92.7,75.2,29.93,West,259,2.0,10.0,57,0.00,,,0.02,Weather View 32 v70,2013-07-27 19:27:00,
2013-07-27 15:30:00,92.6,75.1,29.93,West,267,6.0,10.0,57,0.00,,,0.02,Weather View 32 v70,2013-07-27 19:30:00,
2013-07-27 15:32:00,92.3,74.3,29.93,West,271,0.0,10.0,56,0.00,,,0.02,Weather View 32 v70,2013-07-27 19:32:00,
2013-07-27 15:37:00,91.9,74.9,29.93,WSW,245,1.0,10.0,58,0.00,,,0.02,Weather View 32 v70,2013-07-27 19:37:00,
2013-07-27 15:42:00,91.9,73.9,29.93,West,267,3.0,10.0,56,0.00,,,0.02,Weather View 32 v70,2013-07-27 19:42:00,
2013-07-27 15:47:00,92.4,73.8,29.93,WNW,282,0.0,10.0,55,0.00,,,0.02,Weather View 32 v70,2013-07-27 19:47:00,
2013-07-27 15:52:00,93.2,74.5,29.93,West,280,0.0,10.0,55,0.00,,,0.02,Weather View 32 v70,2013-07-27 19:52:00,
2013-07-27 15:57:00,92.9,74.8,29.93,WSW,254,2.0,8.0,56,0.00,,,0.02,Weather View 32 v70,2013-07-27 19:57:00,
2013-07-27 16:02:00,92.5,76.5,29.93,West,263,5.0,8.0,60,0.00,,,0.02,Weather View 32 v70,2013-07-27 20:02:00,
2013-07-27 16:07:00,92.3,76.8,29.93,West,271,0.0,8.0,61,0.00,,,0.02,Weather View 32 v70,2013-07-27 20:07:00,
2013-07-27 16:12:00,92.6,77.1,29.93,West,276,0.0,8.0,61,0.00,,,0.02,Weather View 32 v70,2013-07-27 20:12:00,
2013-07-27 16:17:00,93.6,77.5,29.92,West,281,6.0,8.0,60,0.00,,,0.02,Weather View 32 v70,2013-07-27 20:17:00,
2013-07-27 16:22:00,92.6,76.6,29.92,WSW,246,4.0,9.0,60,0.00,,,0.02,Weather View 32 v70,2013-07-27 20:22:00,
2013-07-27 16:27:00,92.0,77.0,29.92,West,263,2.0,9.0,62,0.00,,,0.02,Weather View 32 v70,2013-07-27 20:27:00,
2013-07-27 16:30:00,92.2,76.7,29.92,West,266,2.0,9.0,61,0.00,,,0.02,Weather View 32 v70,2013-07-27 20:30:00,
2013-07-27 16:32:00,92.2,76.2,29.92,West,267,6.0,11.0,60,0.00,,,0.02,Weather View 32 v70,2013-07-27 20:32:00,
2013-07-27 16:37:00,91.2,76.3,29.92,WSW,242,3.0,11.0,62,0.00,,,0.02,Weather View 32 v70,2013-07-27 20:37:00,
2013-07-27 16:42:00,91.1,77.2,29.92,North,0,0.0,11.0,64,0.00,,,0.02,Weather View 32 v70,2013-07-27 20:42:00,
2013-07-27 16:47:00,90.8,75.9,29.92,West,271,5.0,11.0,62,0.00,,,0.02,Weather View 32 v70,2013-07-27 20:47:00,
2013-07-27 16:52:00,90.3,75.9,29.92,West,269,5.0,11.0,63,0.00,,,0.02,Weather View 32 v70,2013-07-27 20:52:00,
2013-07-27 16:57:00,90.5,77.1,29.92,West,263,0.0,11.0,65,0.00,,,0.02,Weather View 32 v70,2013-07-27 20:57:00,
2013-07-27 17:02:00,91.0,76.1,29.92,West,280,0.0,11.0,62,0.00,,,0.02,Weather View 32 v70,2013-07-27 21:02:00,
2013-07-27 17:07:00,91.0,76.1,29.92,WSW,254,7.0,11.0,62,0.00,,,0.02,Weather View 32 v70,2013-07-27 21:07:00,
2013-07-27 17:12:00,90.3,75.9,29.92,WSW,249,0.0,11.0,63,0.00,,,0.02,Weather View 32 v70,2013-07-27 21:12:00,
2013-07-27 17:17:00,90.2,74.9,29.91,West,263,5.0,12.0,61,0.62,,,0.02,Weather View 32 v70,2013-07-27 21:17:00,
2013-07-27 17:22:00,89.8,75.9,29.91,WNW,288,3.0,12.0,64,0.00,,,0.02,Weather View 32 v70,2013-07-27 21:22:00,
2013-07-27 17:27:00,90.0,75.2,29.91,WNW,294,4.0,12.0,62,0.00,,,0.02,Weather View 32 v70,2013-07-27 21:27:00,
2013-07-27 17:30:00,90.0,75.2,29.91,WNW,287,5.0,12.0,62,0.00,,,0.02,Weather View 32 v70,2013-07-27 21:30:00,
2013-07-27 17:32:00,89.9,75.6,29.91,WNW,299,3.0,12.0,63,0.00,,,0.02,Weather View 32 v70,2013-07-27 21:32:00,
2013-07-27 17:37:00,89.9,76.0,29.91,West,280,4.0,12.0,64,0.00,,,0.02,Weather View 32 v70,2013-07-27 21:37:00,
2013-07-27 17:42:00,89.7,76.3,29.91,WSW,241,4.0,12.0,65,0.00,,,0.02,Weather View 32 v70,2013-07-27 21:42:00,
2013-07-27 17:47:00,89.1,76.7,29.91,SW,235,7.0,14.0,67,0.00,,,0.02,Weather View 32 v70,2013-07-27 21:47:00,
2013-07-27 17:52:00,89.1,76.7,29.91,West,279,5.0,14.0,67,0.00,,,0.02,Weather View 32 v70,2013-07-27 21:52:00,
2013-07-27 17:57:00,88.5,76.5,29.92,WNW,287,5.0,14.0,68,0.00,,,0.02,Weather View 32 v70,2013-07-27 21:57:00,
2013-07-27 18:02:00,88.5,76.5,29.91,North,0,5.0,14.0,68,0.00,,,0.02,Weather View 32 v70,2013-07-27 22:02:00,
2013-07-27 18:07:00,88.3,77.2,29.91,West,271,3.0,14.0,70,0.00,,,0.02,Weather View 32 v70,2013-07-27 22:07:00,
2013-07-27 18:12:00,88.5,77.0,29.91,WSW,240,2.0,14.0,69,0.00,,,0.02,Weather View 32 v70,2013-07-27 22:12:00,
2013-07-27 18:17:00,88.3,76.8,29.91,West,267,2.0,14.0,69,0.00,,,0.02,Weather View 32 v70,2013-07-27 22:17:00,
2013-07-27 18:22:00,87.6,76.1,29.92,NW,320,4.0,14.0,69,0.00,,,0.02,Weather View 32 v70,2013-07-27 22:22:00,
2013-07-27 18:27:00,87.4,76.4,29.92,West,279,3.0,14.0,70,0.00,,,0.02,Weather View 32 v70,2013-07-27 22:27:00,
2013-07-27 18:30:00,87.4,76.4,29.92,WNW,286,4.0,14.0,70,0.00,,,0.02,Weather View 32 v70,2013-07-27 22:30:00,
2013-07-27 18:32:00,87.3,76.7,29.92,WSW,242,3.0,14.0,71,0.00,,,0.02,Weather View 32 v70,2013-07-27 22:32:00,
2013-07-27 18:37:00,87.6,76.1,29.92,West,261,0.0,14.0,69,0.00,,,0.02,Weather View 32 v70,2013-07-27 22:37:00,
2013-07-27 18:42:00,87.4,76.4,29.92,WSW,254,4.0,14.0,70,0.00,,,0.02,Weather View 32 v70,2013-07-27 22:42:00,
2013-07-27 18:47:00,87.3,76.7,29.92,SW,221,3.0,12.0,71,0.00,,,0.02,Weather View 32 v70,2013-07-27 22:47:00,
2013-07-27 18:52:00,87.2,77.0,29.92,West,269,4.0,12.0,72,0.00,,,0.02,Weather View 32 v70,2013-07-27 22:52:00,
2013-07-27 18:58:00,87.0,77.3,29.93,West,265,5.0,12.0,73,0.00,,,0.02,Weather View 32 v70,2013-07-27 22:58:00,
2013-07-27 19:03:00,86.6,76.4,29.93,SW,232,4.0,12.0,72,0.00,,,0.02,Weather View 32 v70,2013-07-27 23:03:00,
2013-07-27 19:08:00,86.4,76.7,29.93,WSW,257,3.0,12.0,73,0.00,,,0.02,Weather View 32 v70,2013-07-27 23:08:00,
2013-07-27 19:13:00,86.5,76.8,29.94,WSW,239,5.0,12.0,73,0.00,,,0.02,Weather View 32 v70,2013-07-27 23:13:00,
2013-07-27 19:28:00,85.5,76.6,29.94,WSW,252,0.0,12.0,75,0.00,,,0.02,Weather View 32 v70,2013-07-27 23:28:00,
2013-07-27 19:30:00,85.4,76.5,29.94,WSW,256,3.0,12.0,75,0.00,,,0.02,Weather View 32 v70,2013-07-27 23:30:00,
2013-07-27 19:33:00,85.3,76.4,29.94,WSW,256,3.0,12.0,75,0.00,,,0.02,Weather View 32 v70,2013-07-27 23:33:00,
2013-07-27 19:38:00,85.2,75.9,29.94,WSW,238,1.0,12.0,74,0.00,,,0.02,Weather View 32 v70,2013-07-27 23:38:00,
2013-07-27 19:43:00,85.4,76.5,29.94,WSW,238,0.0,12.0,75,0.00,,,0.02,Weather View 32 v70,2013-07-27 23:43:00,
2013-07-27 19:48:00,85.5,76.6,29.94,WSW,239,2.0,9.0,75,0.00,,,0.02,Weather View 32 v70,2013-07-27 23:48:00,
2013-07-27 19:53:00,85.4,76.5,29.94,West,260,2.0,9.0,75,0.00,,,0.02,Weather View 32 v70,2013-07-27 23:53:00,
2013-07-27 19:58:00,85.2,76.3,29.93,West,261,3.0,9.0,75,0.00,,,0.02,Weather View 32 v70,2013-07-27 23:58:00,
2013-07-27 20:03:00,84.8,76.4,29.94,West,264,5.0,9.0,76,0.00,,,0.02,Weather View 32 v70,2013-07-28 00:03:00,
2013-07-27 20:08:00,84.5,76.1,29.93,West,265,0.0,9.0,76,0.00,,,0.02,Weather View 32 v70,2013-07-28 00:08:00,
2013-07-27 20:13:00,84.1,76.1,29.94,WSW,248,3.0,9.0,77,0.00,,,0.02,Weather View 32 v70,2013-07-28 00:13:00,
2013-07-27 20:18:00,83.9,75.9,29.94,West,263,2.0,9.0,77,0.00,,,0.02,Weather View 32 v70,2013-07-28 00:18:00,
2013-07-27 20:23:00,83.7,76.1,29.94,West,263,2.0,9.0,78,0.00,,,0.02,Weather View 32 v70,2013-07-28 00:23:00,
2013-07-27 20:28:00,83.6,76.0,29.94,West,264,0.0,9.0,78,0.00,,,0.02,Weather View 32 v70,2013-07-28 00:28:00,
2013-07-27 20:30:00,83.6,76.0,29.94,West,264,0.0,9.0,78,0.00,,,0.02,Weather View 32 v70,2013-07-28 00:30:00,
2013-07-27 20:33:00,83.5,75.9,29.94,West,264,0.0,9.0,78,0.00,,,0.02,Weather View 32 v70,2013-07-28 00:33:00,
2013-07-27 20:38:00,83.4,75.8,29.94,West,264,2.0,7.0,78,0.00,,,0.02,Weather View 32 v70,2013-07-28 00:38:00,
2013-07-27 20:43:00,83.3,75.3,29.94,WSW,251,1.0,7.0,77,0.00,,,0.02,Weather View 32 v70,2013-07-28 00:43:00,
2013-07-27 20:48:00,83.3,75.3,29.94,WSW,250,0.0,7.0,77,0.00,,,0.02,Weather View 32 v70,2013-07-28 00:48:00,
2013-07-27 20:53:00,83.2,75.2,29.94,WSW,250,0.0,7.0,77,0.00,,,0.02,Weather View 32 v70,2013-07-28 00:53:00,
2013-07-27 20:58:00,83.0,75.0,29.94,WSW,250,0.0,7.0,77,0.00,,,0.02,Weather View 32 v70,2013-07-28 00:58:00,
2013-07-27 21:03:00,83.0,75.4,29.94,WSW,256,0.0,7.0,78,0.00,,,0.02,Weather View 32 v70,2013-07-28 01:03:00,
2013-07-27 21:08:00,82.9,75.3,29.94,WSW,256,0.0,7.0,78,0.00,,,0.02,Weather View 32 v70,2013-07-28 01:08:00,
2013-07-27 21:13:00,82.9,75.7,29.94,West,279,3.0,7.0,79,0.00,,,0.02,Weather View 32 v70,2013-07-28 01:13:00,
2013-07-27 21:18:00,82.9,75.7,29.94,WSW,254,4.0,7.0,79,0.00,,,0.02,Weather View 32 v70,2013-07-28 01:18:00,
2013-07-27 21:23:00,82.9,75.7,29.94,West,267,0.0,6.0,79,0.00,,,0.02,Weather View 32 v70,2013-07-28 01:23:00,
2013-07-27 21:29:00,82.8,75.6,29.94,West,268,1.0,6.0,79,0.00,,,0.02,Weather View 32 v70,2013-07-28 01:29:00,
2013-07-27 21:30:00,82.8,75.6,29.94,West,268,4.0,6.0,79,0.00,,,0.02,Weather View 32 v70,2013-07-28 01:30:00,
2013-07-27 21:34:00,82.8,75.6,29.95,West,261,0.0,6.0,79,0.00,,,0.02,Weather View 32 v70,2013-07-28 01:34:00,
2013-07-27 21:39:00,82.7,75.9,29.95,West,260,0.0,6.0,80,0.00,,,0.02,Weather View 32 v70,2013-07-28 01:39:00,
2013-07-27 21:44:00,82.6,75.4,29.95,West,269,0.0,6.0,79,0.00,,,0.02,Weather View 32 v70,2013-07-28 01:44:00,
2013-07-27 21:49:00,82.6,75.4,29.95,West,262,0.0,6.0,79,0.00,,,0.02,Weather View 32 v70,2013-07-28 01:49:00,
2013-07-27 21:54:00,82.5,75.3,29.95,West,263,1.0,6.0,79,0.00,,,0.02,Weather View 32 v70,2013-07-28 01:54:00,
2013-07-27 21:59:00,82.5,75.3,29.95,West,263,0.0,6.0,79,0.00,,,0.02,Weather View 32 v70,2013-07-28 01:59:00,
2013-07-27 22:04:00,82.5,75.3,29.95,West,263,0.0,6.0,79,0.00,,,0.02,Weather View 32 v70,2013-07-28 02:04:00,
2013-07-27 22:09:00,82.5,75.3,29.95,West,263,0.0,6.0,79,0.00,,,0.02,Weather View 32 v70,2013-07-28 02:09:00,
2013-07-27 22:14:00,82.4,75.6,29.95,West,263,0.0,6.0,80,0.00,,,0.02,Weather View 32 v70,2013-07-28 02:14:00,
2013-07-27 22:19:00,82.3,75.5,29.96,West,263,0.0,6.0,80,0.00,,,0.02,Weather View 32 v70,2013-07-28 02:19:00,
2013-07-27 22:24:00,82.3,75.5,29.96,West,263,0.0,5.0,80,0.00,,,0.02,Weather View 32 v70,2013-07-28 02:24:00,
2013-07-27 22:29:00,82.2,75.8,29.96,West,263,0.0,5.0,81,0.00,,,0.02,Weather View 32 v70,2013-07-28 02:29:00,
2013-07-27 22:30:00,82.1,75.7,29.96,West,263,0.0,5.0,81,0.00,,,0.02,Weather View 32 v70,2013-07-28 02:30:00,
2013-07-27 22:34:00,82.1,75.7,29.96,West,261,0.0,5.0,81,0.00,,,0.02,Weather View 32 v70,2013-07-28 02:34:00,
2013-07-27 22:39:00,82.1,75.3,29.96,West,261,0.0,5.0,80,0.00,,,0.02,Weather View 32 v70,2013-07-28 02:39:00,
2013-07-27 22:44:00,82.1,75.3,29.95,West,261,0.0,5.0,80,0.00,,,0.02,Weather View 32 v70,2013-07-28 02:44:00,
2013-07-27 22:49:00,82.0,75.2,29.96,West,261,0.0,5.0,80,0.00,,,0.02,Weather View 32 v70,2013-07-28 02:49:00,
2013-07-27 22:54:00,81.9,75.1,29.96,West,261,0.0,5.0,80,0.00,,,0.02,Weather View 32 v70,2013-07-28 02:54:00,
2013-07-27 22:59:00,81.8,75.0,29.96,West,261,0.0,5.0,80,0.00,,,0.02,Weather View 32 v70,2013-07-28 02:59:00,
2013-07-27 23:04:00,81.7,74.9,29.96,West,261,0.0,5.0,80,0.00,,,0.02,Weather View 32 v70,2013-07-28 03:04:00,
2013-07-27 23:09:00,81.6,74.8,29.96,West,261,0.0,5.0,80,0.00,,,0.02,Weather View 32 v70,2013-07-28 03:09:00,
2013-07-27 23:14:00,81.5,75.1,29.96,West,261,0.0,5.0,81,0.00,,,0.02,Weather View 32 v70,2013-07-28 03:14:00,
2013-07-27 23:19:00,81.5,75.1,29.96,West,261,0.0,5.0,81,0.62,,,0.02,Weather View 32 v70,2013-07-28 03:19:00,
2013-07-27 23:24:00,81.5,75.1,29.96,West,261,0.0,5.0,81,0.00,,,0.02,Weather View 32 v70,2013-07-28 03:24:00,
2013-07-27 23:29:00,81.3,74.9,29.96,West,261,0.0,5.0,81,0.00,,,0.02,Weather View 32 v70,2013-07-28 03:29:00,
2013-07-27 23:30:00,81.3,74.9,29.96,West,261,0.0,5.0,81,0.00,,,0.02,Weather View 32 v70,2013-07-28 03:30:00,
2013-07-27 23:34:00,81.2,75.2,29.96,West,261,0.0,3.0,82,0.00,,,0.02,Weather View 32 v70,2013-07-28 03:34:00,
2013-07-27 23:39:00,81.0,75.3,29.96,West,261,0.0,3.0,83,0.00,,,0.02,Weather View 32 v70,2013-07-28 03:39:00,
2013-07-27 23:44:00,80.8,75.1,29.97,West,261,0.0,1.0,83,0.00,,,0.02,Weather View 32 v70,2013-07-28 03:44:00,
2013-07-27 23:49:00,80.6,74.9,29.97,West,261,0.0,1.0,83,0.00,,,0.02,Weather View 32 v70,2013-07-28 03:49:00,
2013-07-27 23:54:00,80.4,75.1,29.97,West,261,0.0,1.0,84,-0.02,,,0.00,Weather View 32 v70,2013-07-28 03:54:00,
2013-07-27 23:59:00,80.3,75.0,29.96,West,261,0.0,1.0,84,-0.02,,,0.00,Weather View 32 v70,2013-07-28 03:59:00,